^^
Datos históricos de la estación: Murcia-Puente Tocinos
Diario Informe para Abril 10, 2019 Unidades:  Métrico    Inglés   Ambas
Diario Semanal Mensual Anual Configurable
  Máximo: Mínimo: Media:
Temperatura: 19.3 °C 10.9 °C 14.9 °C
Punto de rocio: 8.0 °C 1.6 °C 4.6 °C
Humedad: 69% 32% 52%
Velocidad viento: 34.6km/h 0.0km/h 9.7km/h
Racha viento: 56.3km/h - -
Viento- - WSW
Presión: 1013.7 hPa 1010.2 hPa -
Precipitación: 0.5 mm    
Historical Graphs
 
 
Tabla de datos para Abril 10, 2019
Hora Temperatura Punto de rocio Presión Viento Velocidad viento Racha viento Humedad Intensidad lluvia(por hora) Nubes
00:00 15.7 °C 4.1 °C 1012.6 hPa SW 8.0 km/h 14.5 km/h 46% 0.0 mm CLR
00:05 15.7 °C 4.4 °C 1012.6 hPa SE 8.4 km/h 5.6 km/h 47% 0.0 mm CLR
00:10 15.5 °C 4.5 °C 1012.6 hPa SSE 5.0 km/h 7.4 km/h 48% 0.0 mm CLR
00:15 15.1 °C 4.4 °C 1012.6 hPa SSE 5.0 km/h 11.1 km/h 49% 0.0 mm CLR
00:20 14.9 °C 4.6 °C 1012.5 hPa South 6.9 km/h 9.3 km/h 50% 0.0 mm CLR
00:25 14.8 °C 4.4 °C 1012.5 hPa SSE 6.9 km/h 11.1 km/h 50% 0.0 mm CLR
00:30 14.8 °C 4.4 °C 1012.5 hPa SSE 8.0 km/h 11.3 km/h 50% 0.0 mm CLR
00:35 14.8 °C 4.4 °C 1012.5 hPa South 8.0 km/h 11.3 km/h 50% 0.0 mm CLR
00:40 14.8 °C 4.2 °C 1012.5 hPa SSW 7.6 km/h 13.0 km/h 49% 0.0 mm CLR
00:45 14.9 °C 4.3 °C 1012.5 hPa SSW 7.6 km/h 9.3 km/h 49% 0.0 mm CLR
00:50 14.9 °C 4.3 °C 1012.5 hPa SSW 8.7 km/h 11.1 km/h 49% 0.0 mm CLR
00:55 15.0 °C 4.4 °C 1012.5 hPa South 8.7 km/h 9.3 km/h 49% 0.0 mm CLR
01:00 15.0 °C 4.3 °C 1012.5 hPa SW 8.0 km/h 12.9 km/h 49% 0.0 mm CLR
01:05 14.9 °C 4.3 °C 1012.4 hPa SW 8.0 km/h 11.3 km/h 49% 0.0 mm CLR
01:10 14.9 °C 4.3 °C 1012.4 hPa WSW 5.8 km/h 5.6 km/h 49% 0.0 mm CLR
01:15 14.9 °C 4.6 °C 1012.4 hPa WSW 4.8 km/h 8.0 km/h 50% 0.0 mm CLR
01:20 14.7 °C 4.4 °C 1012.5 hPa WSW 3.2 km/h 4.8 km/h 50% 0.0 mm CLR
01:25 14.5 °C 4.5 °C 1012.5 hPa West 3.2 km/h 7.4 km/h 51% 0.0 mm CLR
01:30 14.3 °C 4.6 °C 1012.5 hPa NW 3.9 km/h 5.6 km/h 52% 0.0 mm CLR
01:35 14.2 °C 4.4 °C 1012.4 hPa NW 3.2 km/h 3.2 km/h 52% 0.0 mm CLR
01:40 14.1 °C 4.4 °C 1012.4 hPa WSW 2.9 km/h 7.4 km/h 52% 0.0 mm CLR
01:45 14.1 °C 4.4 °C 1012.4 hPa WSW 2.9 km/h 7.4 km/h 52% 0.0 mm CLR
01:50 14.1 °C 4.4 °C 1012.5 hPa SW 3.9 km/h 9.3 km/h 52% 0.0 mm CLR
01:55 14.2 °C 4.5 °C 1012.5 hPa West 3.9 km/h 11.1 km/h 52% 0.0 mm CLR
02:00 14.3 °C 4.3 °C 1012.5 hPa WSW 8.0 km/h 12.9 km/h 51% 0.0 mm CLR
02:05 14.3 °C 4.3 °C 1012.4 hPa SW 7.6 km/h 7.4 km/h 51% 0.0 mm CLR
02:10 14.3 °C 4.3 °C 1012.4 hPa WSW 4.8 km/h 9.7 km/h 51% 0.0 mm CLR
02:15 14.3 °C 4.3 °C 1012.4 hPa SW 5.8 km/h 9.3 km/h 51% 0.0 mm CLR
02:20 14.3 °C 4.3 °C 1012.2 hPa SW 4.8 km/h 9.7 km/h 51% 0.0 mm CLR
02:25 14.3 °C 4.3 °C 1012.2 hPa SW 5.8 km/h 3.7 km/h 51% 0.0 mm CLR
02:30 14.2 °C 4.5 °C 1012.2 hPa NNW 3.9 km/h 3.9 km/h 52% 0.0 mm CLR
02:35 13.8 °C 4.7 °C 1012.1 hPa WNW 3.2 km/h 8.0 km/h 54% 0.0 mm CLR
02:40 13.4 °C 4.6 °C 1012.1 hPa NNW 3.2 km/h 3.2 km/h 55% 0.0 mm CLR
02:45 13.3 °C 4.7 °C 1012.1 hPa NNW 3.2 km/h   56% 0.0 mm CLR
02:50 13.2 °C 4.8 °C 1012.1 hPa Calm   4.8 km/h 57% 0.0 mm CLR
02:55 13.1 °C 4.8 °C 1012.1 hPa Calm   5.6 km/h 57% 0.0 mm CLR
03:00 12.9 °C 4.6 °C 1012.1 hPa NNE 3.2 km/h 8.0 km/h 57% 0.0 mm CLR
03:05 12.8 °C 4.7 °C 1012.0 hPa NE 3.2 km/h 8.0 km/h 58% 0.0 mm CLR
03:10 12.8 °C 4.7 °C 1012.0 hPa NE 3.2 km/h 8.0 km/h 58% 0.0 mm CLR
03:15 12.8 °C 4.7 °C 1012.0 hPa NE 3.2 km/h 4.8 km/h 58% 0.0 mm CLR
03:20 12.9 °C 4.8 °C 1011.9 hPa NE 2.3 km/h 3.9 km/h 58% 0.0 mm CLR
03:25 12.9 °C 4.6 °C 1011.9 hPa NE 1.6 km/h 4.8 km/h 57% 0.0 mm CLR
03:30 13.0 °C 4.7 °C 1011.9 hPa NE 1.6 km/h   57% 0.0 mm CLR
03:35 13.0 °C 4.7 °C 1011.7 hPa East 1.6 km/h 8.0 km/h 57% 0.0 mm CLR
03:40 13.1 °C 4.8 °C 1011.7 hPa SE 3.2 km/h 4.8 km/h 57% 0.0 mm CLR
03:45 13.1 °C 4.8 °C 1011.7 hPa SSE 2.9 km/h 3.7 km/h 57% 0.0 mm CLR
03:50 13.1 °C 4.8 °C 1011.7 hPa SSE 2.3 km/h 2.3 km/h 57% 0.0 mm CLR
03:55 13.1 °C 4.8 °C 1011.7 hPa SSW 2.3 km/h 7.4 km/h 57% 0.0 mm CLR
04:00 13.1 °C 4.8 °C 1011.7 hPa South 3.2 km/h 8.0 km/h 57% 0.0 mm CLR
04:05 13.1 °C 4.8 °C 1011.9 hPa SSW 3.2 km/h 3.2 km/h 57% 0.0 mm CLR
04:10 12.9 °C 4.8 °C 1011.9 hPa Calm     58% 0.0 mm CLR
04:15 12.7 °C 4.9 °C 1011.9 hPa Calm     59% 0.0 mm CLR
04:20 12.6 °C 4.8 °C 1012.0 hPa Calm     59% 0.0 mm CLR
04:25 12.5 °C 4.9 °C 1012.0 hPa Calm     60% 0.0 mm CLR
04:30 12.3 °C 4.8 °C 1012.0 hPa Calm     60% 0.0 mm CLR
04:35 12.2 °C 4.7 °C 1011.8 hPa Calm     60% 0.0 mm CLR
04:40 12.1 °C 4.6 °C 1011.8 hPa Calm     60% 0.0 mm CLR
04:45 12.1 °C 4.6 °C 1011.8 hPa Calm     60% 0.0 mm CLR
04:50 12.1 °C 4.8 °C 1011.7 hPa Calm     61% 0.0 mm CLR
04:55 12.2 °C 4.9 °C 1011.7 hPa Calm   7.4 km/h 61% 0.0 mm CLR
05:00 12.3 °C 5.0 °C 1011.7 hPa South 3.2 km/h 8.0 km/h 61% 0.0 mm CLR
05:05 12.2 °C 4.9 °C 1011.8 hPa West 3.9 km/h 5.6 km/h 61% 0.0 mm CLR
05:10 12.1 °C 4.8 °C 1011.8 hPa West 3.2 km/h 8.0 km/h 61% 0.0 mm CLR
05:15 11.7 °C 4.9 °C 1011.8 hPa NNE 3.9 km/h 5.6 km/h 63% 0.0 mm CLR
05:20 11.4 °C 4.8 °C 1011.8 hPa NNE 3.9 km/h 3.7 km/h 64% 0.0 mm CLR
05:25 11.3 °C 4.7 °C 1011.8 hPa NNE 3.9 km/h 7.4 km/h 64% 0.0 mm CLR
05:30 11.1 °C 4.8 °C 1011.8 hPa North 3.2 km/h 8.0 km/h 65% 0.0 mm CLR
05:35 10.9 °C 4.8 °C 1011.8 hPa North 3.2 km/h 8.0 km/h 66% 0.0 mm CLR
05:40 10.9 °C 4.8 °C 1011.8 hPa NNE 2.9 km/h 3.7 km/h 66% 0.0 mm CLR
05:45 10.9 °C 5.0 °C 1011.8 hPa NNE 2.9 km/h 3.7 km/h 67% 0.0 mm CLR
05:50 10.9 °C 5.0 °C 1011.9 hPa NNE 3.2 km/h 3.2 km/h 67% 0.0 mm CLR
05:55 10.9 °C 5.0 °C 1011.9 hPa NNE 2.9 km/h 3.7 km/h 67% 0.0 mm CLR
06:00 10.9 °C 5.0 °C 1011.9 hPa NNE 1.6 km/h 3.2 km/h 67% 0.0 mm CLR
06:05 11.0 °C 4.9 °C 1011.7 hPa NNE 2.3 km/h   66% 0.0 mm CLR
06:10 11.1 °C 5.2 °C 1011.7 hPa Calm   3.7 km/h 67% 0.0 mm CLR
06:15 11.0 °C 4.9 °C 1011.7 hPa Calm     66% 0.0 mm CLR
06:20 11.0 °C 5.1 °C 1011.8 hPa Calm   5.6 km/h 67% 0.0 mm CLR
06:25 11.1 °C 5.0 °C 1011.8 hPa Calm   5.6 km/h 66% 0.0 mm CLR
06:29 11.3 °C 5.2 °C 1011.8 hPa SSE 4.7 km/h 7.4 km/h 66% 0.0 mm CLR
06:35 11.4 °C 5.1 °C 1011.8 hPa SE 3.2 km/h 8.0 km/h 65% 0.0 mm CLR
06:40 11.4 °C 5.1 °C 1011.8 hPa North 3.9 km/h 3.7 km/h 65% 0.0 mm CLR
06:45 11.4 °C 5.3 °C 1011.8 hPa NE 3.2 km/h 8.0 km/h 66% 0.0 mm CLR
06:50 11.4 °C 5.3 °C 1011.8 hPa ESE 3.2 km/h 8.0 km/h 66% 0.0 mm CLR
06:55 11.3 °C 4.9 °C 1011.8 hPa ESE 3.9 km/h 7.4 km/h 65% 0.0 mm CLR
07:00 11.2 °C 4.8 °C 1011.8 hPa SE 4.8 km/h 9.7 km/h 65% 0.0 mm CLR
07:05 11.1 °C 4.8 °C 1011.8 hPa SE 4.8 km/h 9.7 km/h 65% 0.0 mm CLR
07:09 10.9 °C 4.8 °C 1011.8 hPa SE 5.8 km/h 7.4 km/h 66% 0.0 mm CLR
07:15 10.9 °C 4.8 °C 1011.8 hPa SSE 5.8 km/h 7.4 km/h 66% 0.0 mm CLR
07:20 10.9 °C 4.8 °C 1011.9 hPa SSE 5.0 km/h 9.3 km/h 66% 0.0 mm CLR
07:25 11.0 °C 4.7 °C 1011.9 hPa SSE 5.0 km/h 7.4 km/h 65% 0.0 mm CLR
07:30 11.1 °C 4.8 °C 1011.9 hPa SSE 5.0 km/h 7.6 km/h 65% 0.0 mm CLR
07:35 11.2 °C 4.6 °C 1011.8 hPa SSE 4.8 km/h 9.7 km/h 64% 0.0 mm CLR
07:40 11.3 °C 4.5 °C 1011.8 hPa South 6.4 km/h 7.4 km/h 63% 0.0 mm CLR
07:45 11.2 °C 4.6 °C 1011.8 hPa South 6.4 km/h 9.3 km/h 64% 0.0 mm CLR
07:50 11.2 °C 4.6 °C 1011.8 hPa South 8.0 km/h 9.7 km/h 64% 0.0 mm CLR
07:55 11.3 °C 4.5 °C 1011.8 hPa South 6.9 km/h 8.4 km/h 63% 0.0 mm CLR
08:00 11.5 °C 4.4 °C 1011.8 hPa South 8.0 km/h 9.7 km/h 62% 0.0 mm CLR
08:05 11.7 °C 4.4 °C 1011.8 hPa South 8.0 km/h 9.7 km/h 61% 0.0 mm CLR
08:10 11.9 °C 4.6 °C 1011.8 hPa South 4.8 km/h 9.7 km/h 61% 0.0 mm CLR
08:15 12.1 °C 4.6 °C 1011.8 hPa SSW 5.8 km/h 7.6 km/h 60% 0.0 mm CLR
08:20 12.1 °C 4.6 °C 1012.1 hPa South 6.4 km/h 9.3 km/h 60% 0.0 mm CLR
08:25 12.2 °C 4.7 °C 1012.1 hPa South 6.4 km/h 7.4 km/h 60% 0.0 mm CLR
08:30 12.3 °C 4.5 °C 1012.1 hPa South 4.8 km/h 8.0 km/h 59% 0.0 mm CLR
08:35 12.5 °C 4.7 °C 1012.3 hPa SSW 4.8 km/h 8.0 km/h 59% 0.0 mm CLR
08:40 12.8 °C 4.7 °C 1012.3 hPa SSW 5.0 km/h 5.6 km/h 58% 0.0 mm CLR
08:45 12.9 °C 4.7 °C 1012.3 hPa SW 4.8 km/h 8.0 km/h 57% 0.0 mm CLR
08:50 13.2 °C 4.8 °C 1012.3 hPa WSW 3.2 km/h 8.0 km/h 57% 0.0 mm CLR
08:55 13.4 °C 5.1 °C 1012.3 hPa West 4.7 km/h 3.9 km/h 57% 0.0 mm CLR
09:00 13.5 °C 4.9 °C 1012.3 hPa WSW 3.2 km/h 8.0 km/h 56% 0.0 mm CLR
09:05 13.7 °C 4.8 °C 1012.4 hPa WSW 3.9 km/h 5.6 km/h 55% 0.0 mm CLR
09:10 13.9 °C 4.7 °C 1012.4 hPa WSW 3.2 km/h 4.8 km/h 54% 0.0 mm CLR
09:15 14.2 °C 5.0 °C 1012.4 hPa WNW 3.2 km/h 5.6 km/h 54% 0.0 mm CLR
09:20 14.4 °C 5.4 °C 1012.5 hPa WNW 3.2 km/h 3.7 km/h 55% 0.0 mm CLR
09:25 14.7 °C 5.2 °C 1012.5 hPa WNW 3.2 km/h 5.6 km/h 53% 0.0 mm CLR
09:30 14.8 °C 5.3 °C 1012.5 hPa WNW 3.2 km/h 9.3 km/h 53% 0.0 mm CLR
09:35 14.8 °C 5.1 °C 1012.5 hPa WNW 3.2 km/h 9.7 km/h 52% 0.0 mm CLR
09:40 14.8 °C 4.8 °C 1012.5 hPa WNW 4.8 km/h 9.7 km/h 51% 0.0 mm CLR
09:45 15.1 °C 5.1 °C 1012.5 hPa NNW 5.0 km/h 9.3 km/h 51% 0.0 mm CLR
09:50 15.2 °C 5.1 °C 1012.5 hPa WNW 5.8 km/h 8.4 km/h 51% 0.0 mm CLR
09:55 15.4 °C 4.4 °C 1012.5 hPa West 5.8 km/h 11.9 km/h 48% 0.0 mm CLR
10:00 15.4 °C 4.1 °C 1012.5 hPa NW 8.0 km/h 16.1 km/h 47% 0.0 mm CLR
10:05 15.7 °C 4.4 °C 1012.6 hPa WNW 6.9 km/h 9.5 km/h 47% 0.0 mm CLR
10:10 15.7 °C 3.8 °C 1012.6 hPa NW 8.7 km/h 14.8 km/h 45% 0.0 mm CLR
10:15 15.8 °C 4.2 °C 1012.6 hPa WSW 8.7 km/h 16.7 km/h 46% 0.0 mm CLR
10:20 15.8 °C 4.2 °C 1012.5 hPa West 11.3 km/h 20.9 km/h 46% 0.0 mm CLR
10:25 15.9 °C 4.6 °C 1012.5 hPa NW 10.3 km/h 11.1 km/h 47% 0.0 mm CLR
10:30 16.1 °C 4.4 °C 1012.5 hPa WNW 7.6 km/h 11.1 km/h 46% 0.0 mm CLR
10:35 16.1 °C 4.4 °C 1012.6 hPa NW 7.6 km/h 16.7 km/h 46% 0.0 mm CLR
10:40 16.2 °C 4.6 °C 1012.6 hPa NW 9.7 km/h 16.1 km/h 46% 0.0 mm CLR
10:45 16.3 °C 4.7 °C 1012.6 hPa NW 9.5 km/h 20.4 km/h 46% 0.0 mm CLR
10:50 16.2 °C 4.6 °C 1012.6 hPa WNW 10.3 km/h 18.5 km/h 46% 0.0 mm CLR
10:55 16.2 °C 4.9 °C 1012.6 hPa WNW 10.3 km/h 18.5 km/h 47% 0.0 mm CLR
11:00 16.3 °C 4.7 °C 1012.6 hPa WNW 14.5 km/h 20.9 km/h 46% 0.0 mm CLR
11:05 16.5 °C 4.8 °C 1012.5 hPa WNW 14.5 km/h 24.1 km/h 46% 0.0 mm CLR
11:10 16.6 °C 4.6 °C 1012.5 hPa NW 12.9 km/h 25.7 km/h 45% 0.0 mm CLR
11:15 16.7 °C 4.7 °C 1012.5 hPa NW 13.7 km/h 16.7 km/h 45% 0.0 mm CLR
11:20 16.8 °C 4.4 °C 1012.6 hPa WNW 12.9 km/h 25.7 km/h 44% 0.0 mm CLR
11:25 16.9 °C 4.9 °C 1012.6 hPa WNW 12.9 km/h 22.5 km/h 45% 0.0 mm CLR
11:30 16.9 °C 4.6 °C 1012.6 hPa NNW 13.0 km/h 20.4 km/h 44% 0.0 mm CLR
11:35 17.0 °C 4.3 °C 1012.7 hPa SW 13.0 km/h 18.5 km/h 43% 0.0 mm CLR
11:40 17.2 °C 4.5 °C 1012.7 hPa NW 12.2 km/h 20.4 km/h 43% 0.0 mm CLR
11:45 17.3 °C 4.3 °C 1012.7 hPa WNW 12.2 km/h 27.8 km/h 42% 0.0 mm CLR
11:50 17.2 °C 4.2 °C 1012.7 hPa WNW 16.4 km/h 29.6 km/h 42% 0.0 mm CLR
11:55 17.2 °C 4.2 °C 1012.7 hPa NW 16.4 km/h 31.7 km/h 42% 0.0 mm CLR
12:00 17.2 °C 3.8 °C 1012.7 hPa WNW 16.1 km/h 32.2 km/h 41% 0.0 mm CLR
12:05 17.3 °C 4.3 °C 1012.6 hPa WNW 16.1 km/h 35.4 km/h 42% 0.0 mm CLR
12:10 17.4 °C 4.0 °C 1012.6 hPa NW 19.3 km/h 35.4 km/h 41% 0.0 mm CLR
12:15 17.3 °C 3.6 °C 1012.6 hPa WNW 18.0 km/h 29.1 km/h 40% 0.0 mm CLR
12:20 17.2 °C 3.1 °C 1012.6 hPa West 23.7 km/h 24.1 km/h 39% 0.0 mm CLR
12:25 17.4 °C 3.3 °C 1012.6 hPa West 23.7 km/h 40.7 km/h 39% 0.0 mm CLR
12:30 17.2 °C 3.1 °C 1012.6 hPa West 21.7 km/h 33.3 km/h 39% 0.0 mm CLR
12:35 17.3 °C 3.6 °C 1012.4 hPa NW 21.7 km/h 24.1 km/h 40% 0.0 mm CLR
12:40 17.3 °C 3.2 °C 1012.4 hPa NW 19.0 km/h 33.3 km/h 39% 0.0 mm CLR
12:45 17.2 °C 3.1 °C 1012.4 hPa WNW 19.0 km/h 33.3 km/h 39% 0.0 mm CLR
12:50 17.2 °C 3.4 °C 1012.2 hPa WNW 22.5 km/h 29.0 km/h 40% 0.0 mm CLR
12:55 17.4 °C 3.7 °C 1012.2 hPa NNW 22.0 km/h 25.9 km/h 40% 0.0 mm CLR
13:00 17.6 °C 3.4 °C 1012.2 hPa NW 19.3 km/h 27.4 km/h 39% 0.0 mm CLR
13:05 17.6 °C 3.4 °C 1012.1 hPa NW 18.3 km/h 20.4 km/h 39% 0.0 mm CLR
13:10 17.9 °C 3.7 °C 1012.1 hPa North 16.1 km/h 18.5 km/h 39% 0.0 mm CLR
13:15 17.9 °C 3.4 °C 1012.1 hPa NNW 16.1 km/h 31.5 km/h 38% 0.0 mm CLR
13:20 18.1 °C 3.6 °C 1011.9 hPa WNW 17.2 km/h 37.0 km/h 38% 0.0 mm CLR
13:25 17.9 °C 3.4 °C 1011.9 hPa NW 16.1 km/h 37.0 km/h 38% 0.0 mm CLR
13:30 18.2 °C 3.3 °C 1011.9 hPa NW 19.3 km/h 37.0 km/h 37% 0.0 mm CLR
13:35 18.0 °C 3.1 °C 1011.8 hPa NW 18.3 km/h 25.9 km/h 37% 0.0 mm CLR
13:40 18.1 °C 3.2 °C 1011.8 hPa West 23.3 km/h 33.3 km/h 37% 0.0 mm CLR
13:45 18.2 °C 3.3 °C 1011.8 hPa NW 23.3 km/h 25.9 km/h 37% 0.0 mm CLR
13:50 18.3 °C 2.9 °C 1011.7 hPa NNE 19.0 km/h 37.0 km/h 36% 0.0 mm CLR
13:55 18.2 °C 3.3 °C 1011.7 hPa NW 19.0 km/h 22.2 km/h 37% 0.0 mm CLR
14:00 18.3 °C 2.9 °C 1011.7 hPa NW 20.9 km/h 35.4 km/h 36% 0.0 mm CLR
14:05 18.6 °C 3.2 °C 1011.7 hPa NW 20.9 km/h 37.0 km/h 36% 0.0 mm CLR
14:10 18.4 °C 2.7 °C 1011.7 hPa WNW 19.0 km/h 24.1 km/h 35% 0.0 mm CLR
14:15 18.4 °C 3.1 °C 1011.7 hPa NW 19.0 km/h 20.4 km/h 36% 0.0 mm CLR
14:20 18.5 °C 2.7 °C 1011.7 hPa NW 16.1 km/h 25.9 km/h 35% 0.0 mm CLR
14:25 18.6 °C 3.2 °C 1011.7 hPa North 16.1 km/h 16.7 km/h 36% 0.0 mm CLR
14:30 18.3 °C 2.6 °C 1011.7 hPa North 17.2 km/h 33.3 km/h 35% 0.0 mm CLR
14:35 18.3 °C 2.9 °C 1011.6 hPa NW 16.1 km/h 33.8 km/h 36% 0.0 mm CLR
14:40 18.4 °C 2.7 °C 1011.6 hPa West 16.4 km/h 20.4 km/h 35% 0.0 mm CLR
14:45 18.5 °C 2.7 °C 1011.6 hPa West 16.4 km/h 33.3 km/h 35% 0.0 mm CLR
14:50 18.6 °C 2.4 °C 1011.6 hPa WNW 17.2 km/h 29.6 km/h 34% 0.0 mm CLR
14:55 18.5 °C 1.9 °C 1011.6 hPa West 17.2 km/h 24.1 km/h 33% 0.0 mm CLR
15:00 18.6 °C 2.0 °C 1011.6 hPa WNW 16.1 km/h 24.1 km/h 33% 0.0 mm CLR
15:05 18.5 °C 1.9 °C 1011.5 hPa WNW 16.4 km/h 24.1 km/h 33% 0.0 mm CLR
15:10 18.4 °C 1.8 °C 1011.5 hPa WNW 16.1 km/h 25.7 km/h 33% 0.0 mm CLR
15:15 18.5 °C 1.9 °C 1011.5 hPa West 16.1 km/h 25.9 km/h 33% 0.0 mm CLR
15:20 18.6 °C 2.0 °C 1011.4 hPa WNW 12.9 km/h 25.7 km/h 33% 0.0 mm CLR
15:25 18.7 °C 2.1 °C 1011.4 hPa WNW 13.7 km/h 14.8 km/h 33% 0.0 mm CLR
15:30 18.7 °C 1.7 °C 1011.4 hPa NNW 14.0 km/h 20.4 km/h 32% 0.0 mm CLR
15:35 18.8 °C 2.2 °C 1011.3 hPa WNW 14.5 km/h 24.1 km/h 33% 0.0 mm CLR
15:40 18.9 °C 2.3 °C 1011.3 hPa NW 13.7 km/h 24.1 km/h 33% 0.0 mm CLR
15:45 18.7 °C 1.7 °C 1011.3 hPa NW 13.7 km/h 35.2 km/h 32% 0.0 mm CLR
15:50 18.6 °C 1.6 °C 1011.1 hPa NNW 18.3 km/h 25.9 km/h 32% 0.0 mm CLR
15:55 18.6 °C 1.6 °C 1011.1 hPa West 18.3 km/h 18.5 km/h 32% 0.0 mm CLR
16:00 18.7 °C 1.7 °C 1011.1 hPa NW 19.3 km/h 27.4 km/h 32% 0.0 mm CLR
16:05 18.8 °C 1.7 °C 1011.0 hPa WNW 18.0 km/h 19.0 km/h 32% 0.0 mm CLR
16:10 18.8 °C 1.7 °C 1011.0 hPa WNW 14.5 km/h 22.5 km/h 32% 0.0 mm CLR
16:15 18.7 °C 2.1 °C 1011.0 hPa West 14.0 km/h 25.9 km/h 33% 0.0 mm CLR
16:20 18.5 °C 3.1 °C 1010.9 hPa NW 14.8 km/h 18.5 km/h 36% 0.0 mm CLR
16:25 18.4 °C 3.1 °C 1010.9 hPa NNW 14.8 km/h 16.7 km/h 36% 0.0 mm CLR
16:30 18.4 °C 3.4 °C 1010.9 hPa NW 14.0 km/h 24.1 km/h 37% 0.0 mm CLR
16:35 18.4 °C 3.4 °C 1010.6 hPa NNW 14.0 km/h 14.8 km/h 37% 0.0 mm CLR
16:40 18.3 °C 3.3 °C 1010.6 hPa NW 11.1 km/h 11.1 km/h 37% 0.0 mm CLR
16:45 18.4 °C 3.1 °C 1010.6 hPa West 11.1 km/h 20.4 km/h 36% 0.0 mm CLR
16:50 18.6 °C 2.8 °C 1010.5 hPa NW 9.7 km/h 22.5 km/h 35% 0.0 mm CLR
16:55 18.6 °C 2.8 °C 1010.5 hPa NW 10.0 km/h 13.0 km/h 35% 0.0 mm CLR
17:00 18.7 °C 2.6 °C 1010.5 hPa NW 9.7 km/h 22.5 km/h 34% 0.0 mm CLR
17:05 19.1 °C 2.4 °C 1010.3 hPa West 10.0 km/h 20.4 km/h 33% 0.0 mm CLR
17:10 19.2 °C 2.5 °C 1010.3 hPa WNW 12.9 km/h 24.1 km/h 33% 0.0 mm CLR
17:15 19.3 °C 2.6 °C 1010.3 hPa NW 12.2 km/h 18.5 km/h 33% 0.0 mm CLR
17:20 19.3 °C 2.2 °C 1010.2 hPa NW 12.2 km/h 14.8 km/h 32% 0.0 mm CLR
17:25 19.2 °C 2.9 °C 1010.2 hPa NNW 12.2 km/h 16.7 km/h 34% 0.0 mm CLR
17:30 19.3 °C 3.1 °C 1010.2 hPa NW 11.1 km/h 14.8 km/h 34% 0.0 mm CLR
17:35 19.2 °C 3.8 °C 1010.4 hPa NNE 11.1 km/h 38.9 km/h 36% 0.0 mm CLR
17:40 18.1 °C 3.9 °C 1010.4 hPa West 15.6 km/h 31.5 km/h 39% 0.0 mm CLR
17:45 17.3 °C 3.9 °C 1010.4 hPa NW 15.6 km/h 35.2 km/h 41% 0.0 mm CLR
17:50 17.1 °C 3.7 °C 1010.8 hPa NW 20.9 km/h 37.0 km/h 41% 0.0 mm CLR
17:55 16.8 °C 3.4 °C 1010.8 hPa WSW 20.1 km/h 38.9 km/h 41% 0.0 mm CLR
18:00 16.4 °C 3.8 °C 1010.8 hPa NW 24.1 km/h 45.1 km/h 43% 0.0 mm CLR
18:05 15.9 °C 3.9 °C 1011.3 hPa NNW 24.5 km/h 38.9 km/h 45% 0.0 mm CLR
18:10 15.7 °C 4.4 °C 1011.3 hPa NW 25.6 km/h 37.0 km/h 47% 0.0 mm CLR
18:15 15.3 °C 4.6 °C 1011.3 hPa NW 25.6 km/h 20.9 km/h 49% 0.0 mm CLR
18:20 15.3 °C 4.6 °C 1011.7 hPa NNW 19.3 km/h 25.7 km/h 49% 0.0 mm CLR
18:25 15.3 °C 4.3 °C 1011.7 hPa NW 19.0 km/h 37.0 km/h 48% 0.0 mm CLR
18:30 15.3 °C 4.3 °C 1011.7 hPa NW 15.6 km/h 31.5 km/h 48% 0.0 mm CLR
18:35 15.1 °C 5.1 °C 1011.8 hPa WNW 15.6 km/h 37.0 km/h 51% 0.0 mm CLR
18:40 14.5 °C 5.6 °C 1011.8 hPa WNW 22.5 km/h 51.8 km/h 55% 0.0 mm CLR
18:45 14.2 °C 5.6 °C 1011.8 hPa NW 22.5 km/h 53.7 km/h 56% 0.0 mm CLR
18:50 13.9 °C 6.3 °C 1011.8 hPa WNW 34.6 km/h 38.9 km/h 60% 0.0 mm CLR
18:55 13.8 °C 6.4 °C 1011.8 hPa WNW 34.6 km/h 55.5 km/h 61% 0.0 mm CLR
19:00 13.6 °C 6.4 °C 1011.8 hPa NW 32.2 km/h 56.3 km/h 62% 0.0 mm CLR
19:05 13.1 °C 7.1 °C 1012.6 hPa WNW 31.7 km/h 24.1 km/h 67% 0.5 mm RA
19:10 12.9 °C 6.9 °C 1012.6 hPa NNW 20.9 km/h 11.1 km/h 67% 0.5 mm RA
19:15 12.9 °C 7.1 °C 1012.6 hPa WNW 20.9 km/h 3.7 km/h 68% 0.5 mm
19:20 13.1 °C 7.3 °C 1012.1 hPa West 3.9 km/h   68% 0.5 mm CLR
19:25 13.2 °C 7.4 °C 1012.1 hPa West 3.9 km/h   68% 0.5 mm CLR
19:30 13.3 °C 7.1 °C 1012.1 hPa Calm   9.3 km/h 66% 0.5 mm CLR
19:35 13.5 °C 7.9 °C 1011.9 hPa Calm   9.3 km/h 69% 0.5 mm CLR
19:40 13.6 °C 8.0 °C 1011.9 hPa West 8.0 km/h 11.3 km/h 69% 0.0 mm
19:45 13.7 °C 7.9 °C 1011.9 hPa SSW 6.4 km/h 13.0 km/h 68% 0.5 mm CLR
19:50 13.8 °C 8.0 °C 1012.0 hPa WSW 7.6 km/h 13.0 km/h 68% 0.5 mm CLR
19:55 13.9 °C 7.2 °C 1012.0 hPa SW 8.0 km/h 16.1 km/h 64% 0.0 mm
20:00 14.2 °C 7.0 °C 1012.0 hPa SW 9.7 km/h 16.1 km/h 62% 0.0 mm
20:05 14.4 °C 6.7 °C 1012.2 hPa WSW 10.0 km/h 16.7 km/h 60% 0.3 mm CLR
20:10 14.5 °C 7.1 °C 1012.2 hPa SW 10.3 km/h 16.7 km/h 61% 0.0 mm CLR
20:15 14.6 °C 7.2 °C 1012.2 hPa West 10.3 km/h 13.0 km/h 61% 0.0 mm CLR
20:20 14.6 °C 7.2 °C 1012.4 hPa WSW 10.0 km/h 18.0 km/h 61% 0.0 mm CLR
20:25 14.6 °C 7.2 °C 1012.4 hPa WSW 10.0 km/h 13.0 km/h 61% 0.0 mm CLR
20:30 14.6 °C 6.9 °C 1012.4 hPa West 8.7 km/h 18.5 km/h 60% 0.0 mm CLR
20:35 14.6 °C 7.2 °C 1012.4 hPa West 8.7 km/h 10.3 km/h 61% 0.0 mm CLR
20:40 14.6 °C 7.4 °C 1012.4 hPa SW 8.7 km/h 11.1 km/h 62% 0.0 mm CLR
20:45 14.4 °C 7.2 °C 1012.4 hPa WSW 8.7 km/h 14.8 km/h 62% 0.0 mm CLR
20:50 14.4 °C 7.2 °C 1012.5 hPa WSW 8.0 km/h 12.9 km/h 62% 0.0 mm CLR
20:55 14.4 °C 7.2 °C 1012.5 hPa West 8.4 km/h 11.1 km/h 62% 0.0 mm CLR
21:00 14.4 °C 6.7 °C 1012.5 hPa WSW 8.0 km/h 19.3 km/h 60% 0.0 mm CLR
21:05 14.4 °C 6.7 °C 1012.8 hPa WSW 8.4 km/h 18.5 km/h 60% 0.0 mm CLR
21:10 14.4 °C 6.5 °C 1012.8 hPa SW 10.3 km/h 18.5 km/h 59% 0.0 mm CLR
21:15 14.4 °C 6.5 °C 1012.8 hPa WSW 10.3 km/h 18.5 km/h 59% 0.0 mm CLR
21:20 14.3 °C 6.6 °C 1012.8 hPa WSW 12.2 km/h 13.0 km/h 60% 0.0 mm CLR
21:25 14.3 °C 6.6 °C 1012.8 hPa SW 12.2 km/h 18.5 km/h 60% 0.0 mm CLR
21:30 14.2 °C 6.6 °C 1012.8 hPa WSW 10.3 km/h 16.7 km/h 60% 0.0 mm CLR
21:35 14.2 °C 6.6 °C 1012.9 hPa WSW 10.3 km/h 18.5 km/h 60% 0.0 mm CLR
21:40 14.1 °C 6.4 °C 1012.9 hPa West 11.1 km/h 14.8 km/h 60% 0.0 mm CLR
21:45 14.0 °C 6.6 °C 1012.9 hPa WSW 11.1 km/h 13.0 km/h 61% 0.0 mm CLR
21:50 14.0 °C 6.6 °C 1012.9 hPa WSW 11.1 km/h 15.6 km/h 61% 0.0 mm CLR
21:55 14.0 °C 6.3 °C 1012.9 hPa West 11.1 km/h 16.7 km/h 60% 0.0 mm CLR
22:00 14.0 °C 6.3 °C 1012.9 hPa WSW 9.7 km/h 16.1 km/h 60% 0.0 mm CLR
22:05 14.1 °C 6.2 °C 1013.1 hPa WSW 10.0 km/h 14.8 km/h 59% 0.0 mm CLR
22:10 14.1 °C 6.2 °C 1013.1 hPa WSW 10.3 km/h 14.8 km/h 59% 0.0 mm CLR
22:15 14.1 °C 6.2 °C 1013.1 hPa WSW 10.3 km/h 14.8 km/h 59% 0.0 mm CLR
22:20 14.1 °C 6.2 °C 1013.5 hPa WSW 8.4 km/h 11.1 km/h 59% 0.0 mm CLR
22:25 14.1 °C 6.2 °C 1013.5 hPa WSW 8.4 km/h 11.1 km/h 59% 0.0 mm CLR
22:30 14.0 °C 6.3 °C 1013.5 hPa SW 8.4 km/h 13.0 km/h 60% 0.0 mm CLR
22:35 13.9 °C 6.0 °C 1013.5 hPa SW 8.4 km/h 14.8 km/h 59% 0.0 mm CLR
22:40 13.9 °C 6.0 °C 1013.5 hPa WSW 10.3 km/h 13.0 km/h 59% 0.0 mm CLR
22:45 13.8 °C 5.9 °C 1013.5 hPa SW 10.3 km/h 11.1 km/h 59% 0.0 mm CLR
22:50 13.8 °C 5.9 °C 1013.7 hPa SW 7.6 km/h 10.0 km/h 59% 0.0 mm CLR
22:55 13.8 °C 5.9 °C 1013.7 hPa SSW 7.6 km/h 14.8 km/h 59% 0.0 mm CLR
23:00 13.8 °C 5.9 °C 1013.7 hPa SW 8.0 km/h 14.5 km/h 59% 0.0 mm CLR
23:05 13.8 °C 5.7 °C 1013.6 hPa SSW 7.6 km/h 9.3 km/h 58% 0.0 mm CLR
23:10 13.8 °C 5.9 °C 1013.6 hPa SE 6.4 km/h 7.4 km/h 59% 0.0 mm CLR
23:15 13.7 °C 6.1 °C 1013.6 hPa SE 6.4 km/h 3.7 km/h 60% 0.0 mm CLR
23:20 13.7 °C 6.1 °C 1013.7 hPa SE 3.2 km/h 5.6 km/h 60% 0.0 mm CLR
23:25 13.6 °C 5.7 °C 1013.7 hPa WSW 3.2 km/h 9.3 km/h 59% 0.0 mm CLR
23:30 13.6 °C 5.5 °C 1013.7 hPa WSW 6.4 km/h 13.0 km/h 58% 0.0 mm CLR
23:35 13.7 °C 5.6 °C 1013.6 hPa WSW 6.4 km/h 11.1 km/h 58% 0.0 mm CLR
23:40 13.7 °C 5.6 °C 1013.6 hPa WNW 8.4 km/h 9.3 km/h 58% 0.0 mm CLR
23:45 13.7 °C 5.3 °C 1013.6 hPa West 8.4 km/h 16.7 km/h 57% 0.0 mm CLR
23:50 13.7 °C 5.3 °C 1013.5 hPa SW 8.7 km/h 16.7 km/h 57% 0.0 mm CLR
23:55 13.7 °C 5.6 °C 1013.5 hPa WSW 8.7 km/h 9.3 km/h 58% 0.0 mm CLR
Murcia-Puente Tocinos, España
Compliments of Weather Underground - 2.75 mb

La estación de MeteoMurcia.com, publica sus datos en los siguientes proyectos:

Weather Underground PWS IMURCIAP2 Meteoclimatic www.awekas.at

W3Counter
Web Analytics